Regional Weather Roundup
Issued by NWS

Home | Current Version | Previous Version | Text Only | Print | Product List | Glossary On
Versions: 1 2 3 4 5 6 7 8 9 10 11 12 13 14 15 16 17 18 19 20 21 22 23 24 25 26 27 28 29 30 31 32 33 34 35 36 37 38 39 40 41 42 43 44 45 46 47 48 49 50
000
ASUS43 KFSD 291210
RWRSD

WEATHER ROUNDUP FOR SOUTH DAKOTA
NATIONAL WEATHER SERVICE SIOUX FALLS SD
700 AM CDT SUN MAY 29 2016

NOTE: "FAIR" INDICATES FEW OR NO CLOUDS BELOW 12,000 FEET WITH NO
SIGNIFICANT WEATHER AND/OR OBSTRUCTIONS TO VISIBILITY.


SDZ001>005-009-010-012>017-291300-
NORTHWEST AND NORTH CENTRAL SOUTH DAKOTA

CITY           SKY/WX    TMP DP  RH WIND       PRES   REMARKS
BUFFALO          N/A     50  41  71 W5        30.00R
FAITH            N/A     50  46  86 W3        30.05R
MOBRIDGE       CLEAR     53  49  86 N7        30.00R
$$

SDZ012>016-024>037-041>051-057-063-072>074-291300-
SOUTHWEST AND SOUTH CENTRAL SOUTH DAKOTA

CITY           SKY/WX    TMP DP  RH WIND       PRES   REMARKS
RAPID CTY ARPT MOCLDY    51  45  79 NW6       30.08R
PIERRE         CLEAR     52  51  97 SW5       30.03R
CUSTER         CLOUDY    41  38  89 NW3       30.15R
ELLSWORTH AFB  MOCLDY    49  47  93 NW6       30.07R
PHILIP         CLEAR     48  47  96 W7        30.06R
PINE RIDGE     CLEAR     38  37  97 CALM      30.10R
WINNER         FAIR      56  49  77 W7        30.06R
$$

SDZ004>011-016>023-039-040-291300-
NORTHEAST SOUTH DAKOTA

CITY           SKY/WX    TMP DP  RH WIND       PRES   REMARKS
ABERDEEN       SUNNY     57  52  83 W9        29.98R
WATERTOWN      SUNNY     58  55  90 W8        29.97R
BROOKINGS      SUNNY     57  56  96 W6        29.99R
SISSETON         N/A     59  56  89 NW10      29.93R
$$

SDZ017-020-022-023-036>040-048>070-291300-
SOUTHEAST SOUTH DAKOTA

CITY           SKY/WX    TMP DP  RH WIND       PRES   REMARKS
SIOUX FALLS    MOSUNNY   59  57  93 CALM      30.01R
HURON          CLOUDY    56  53  90 W6        30.00R
CHAMBERLAIN    CLEAR     56  56  99 W6        30.05R
MITCHELL       CLEAR     59  57  93 CALM      30.02R
YANKTON        PTCLDY    55  54  94 CALM      30.02R
$$

ABBREVIATIONS USED IN REMARKS
   TC - TEMPERATURE IN CELSIUS
  WCI - WIND CHILL INDEX
   HX - HEAT INDEX
  VSB - VISIBILITY





USA.gov is the U.S. government's official web portal to all federal, state and local government web resources and services.